User: anonymous   Login
Location: Desert Center
(33.7130°N, 115.4010°W)
Time: 15:04:39
(UTC-07:00)
Language:

USA 215 - Orbit

View from above orbital plane
View from above orbital plane
View from above satellite
View from above satellite

Ground track
Ground track

The orbit data is extracted from the following two-line orbital elements,

1 37162U 10046A   14294.79979749 0.00000000  00000-0  00000-0 0    04
2 37162 122.9945  46.9807 0005247  24.6859 335.3141 13.41449480    07
Epoch (UTC): 21 October 2014 19:11:42
Eccentricity: 0.0005247
inclination: 122.9945°
perigee height: 1100 km
apogee height: 1108 km
right ascension of ascending node: 46.9807°
argument of perigee: 24.6859°
revolutions per day: 13.41449480
mean anomaly at epoch: 335.3141°
orbit number at epoch: 0

The dashed part of the orbit path shows where the satellite is in the earth's shadow,  

DLR